Simultaneous Nadir Overpasses (SNOs) Predictions

Prediction of SNOs between GOES-17 and FY3D Satellite Orbit:

Table of predicted SNOs for the next 14.0 days since TLE Epoch: 2/27/2021
Index Date Time (GOES-17) GOES-17 Lat,Lon FY3D Lat,Lon Distance(km) Time Diff (sec)
1 02/27/2021 10:49:21 -0.04,-137.22 0.21,-138.26 119.60 80
2 02/28/2021 10:27:45 -0.04,-137.22 -0.86,-133.68 403.47 80
3 03/01/2021 22:49:22 0.04,-137.22 -0.31,-138.90 191.25 80
4 03/02/2021 22:33:04 0.04,-137.22 0.70,-134.31 331.51 80
5 03/04/2021 10:54:32 -0.04,-137.22 0.50,-139.48 258.84 80
6 03/05/2021 10:32:55 -0.04,-137.21 -0.58,-134.91 263.30 80
7 03/06/2021 22:54:32 0.03,-137.20 -0.65,-140.11 332.96 80
8 03/07/2021 22:38:15 0.02,-137.19 0.42,-135.53 188.96 80
9 03/09/2021 10:59:42 -0.01,-137.18 0.78,-140.71 402.30 80
10 03/10/2021 10:38:05 -0.01,-137.16 -0.24,-136.12 119.32 80
11 03/11/2021 22:59:42 0.00,-137.14 -0.92,-141.34 477.59 80
12 03/12/2021 22:43:25 0.00,-137.13 0.10,-136.75 43.95 80
